Location: Ferintosh
(52.7647°N, 112.9692°W)
Time: 04:49:21
(UTC+00:00)

S-56A Canister/Altair - Pass Details

Date: 25 May 2024
Orbit: 637 x 2488 km, 38.9° (Epoch: 23 June)

Event Time Altitude Azimuth Distance (km) Brightness Sun altitude
Rises 11:15:27 0° 199° (SSW) 6,116 11.6 -1.4°
Reaches altitude 10° 11:21:15 10° 184° (S) 4,972 11.3 -0.7°
Maximum altitude 11:29:41 19° 147° (SSE) 3,894 11.1 0.3°
Drops below altitude 10° 11:36:52 10° 107° (ESE) 4,155 11.9 1.2°
Sets 11:41:02 0° 91° (E) 4,829 12.6 1.7°
